Location: Goudex
(43.3760°N, 0.9543°E)
Time: 13:06:37
(UTC+00:00)

Cosmos 1459 Rocket - Pass Details

Date: 20 November 2019
Orbit: 938 x 999 km, 83.0° (Epoch: 14 December)

Event Time Altitude Azimuth Distance (km) Brightness Sun altitude
Rises 05:20:56 0° 208° (SSW) 3,634 6.8 -17.0°
Reaches altitude 10° 05:23:34 10° 215° (SW) 2,701 6.1 -16.5°
Maximum altitude 05:29:23 42° 285° (WNW) 1,376 4.3 -15.5°
Drops below altitude 10° 05:35:20 10° 355° (N) 2,757 6.2 -14.5°
Sets 05:38:03 0° 2° (N) 3,717 6.9 -14.0°
